Temperature
12 12 13 14 16 17 19 21 21 20 21 21 21 22 23 24 24 24 21 21 21 21 20 19 18 17 17 17 17 16 16 16 16 16 16 16 16 16 16 15 15 15 15 15 15 15 15 14 14
11 12 13 15 17 18 19 21 20 20 21 20 20 20 22 23 23 22 21 21 20 20 19 18 18 17 17 16 16 16 16 16 16 16 16 16 16 16 15 15 15 15 15 15 14 14 14 14 14
11 12 14 15 16 18 20 20 20 21 20 20 20 20 21 22 21 21 20 20 20 19 18 17 17 17 16 16 16 16 16 16 16 16 16 15 15 15 15 15 14 14 14 14 14 14 14 14 14
11 12 13 15 16 19 20 21 20 20 20 19 19 21 20 20 19 19 20 19 19 18 17 17 17 16 16 16 16 16 16 16 16 16 15 15 15 15 14 14 14 14 14 14 13 13 13 13 13
11 13 14 14 16 19 20 20 19 19 20 19 19 21 21 19 19 19 19 19 18 17 17 16 16 16 16 16 16 16 16 15 15 15 15 15 15 14 14 14 14 14 13 13 13 13 13 13 13
11 13 13 15 17 18 19 18 18 19 19 19 19 20 20 19 18 18 18 18 17 16 16 16 16 16 16 16 16 15 15 15 15 15 15 15 14 14 14 14 13 13 13 13 13 13 12 12 13
12 13 13 15 16 17 18 18 17 18 19 18 18 19 19 18 18 17 17 16 16 15 15 15 15 15 15 15 15 15 15 15 15 15 15 14 14 14 14 13 13 13 13 13 12 12 12 12 12
10 12 13 14 15 16 17 16 16 16 17 17 17 18 19 18 17 16 16 15 15 15 15 15 15 15 15 15 15 15 15 15 15 14 14 14 14 13 13 13 13 13 12 12 12 12 12 12 12
9 11 12 14 14 15 16 15 15 15 15 15 16 16 16 16 15 15 14 14 15 15 15 15 15 15 15 15 15 15 15 15 14 14 14 14 13 13 13 12 12 12 12 12 11 11 11 12 11
9 10 12 14 14 14 14 13 13 14 15 15 15 15 14 14 14 14 14 14 14 14 14 15 15 15 15 15 15 15 14 14 14 14 13 13 13 12 12 12 12 12 11 11 11 11 11 11 11
10 10 11 12 12 12 12 12 12 13 14 15 15 14 14 13 13 14 14 14 14 14 14 14 14 15 15 15 14 14 14 14 14 13 13 13 12 12 12 12 11 11 11 11 11 10 10 10 10
9 10 10 10 10 10 11 11 11 12 12 13 13 13 13 12 13 13 14 14 14 14 14 14 14 14 14 14 14 14 14 14 13 13 13 13 12 12 12 11 11 11 10 10 10 10 10 10 10
8 9 9 9 9 9 9 10 11 11 11 11 12 12 12 12 12 13 13 13 13 13 13 14 14 14 14 14 14 14 14 14 13 13 13 13 12 12 12 11 11 11 10 10 10 10 10 10 9
8 8 8 8 9 9 10 10 10 11 11 11 11 12 12 12 12 12 12 13 13 13 13 13 13 14 14 14 14 14 14 13 13 13 13 12 12 12 11 11 11 11 10 10 10 10 10 9 9
7 7 8 9 9 10 9 9 10 11 11 11 11 11 12 12 12 12 12 12 12 13 13 13 13 13 14 14 14 14 13 13 13 13 12 12 12 12 11 11 11 11 10 10 10 9 9 9 9
7 7 7 9 9 9 8 8 11 11 10 10 11 11 11 12 12 11 12 12 12 12 12 13 13 13 13 13 13 13 13 13 13 12 12 12 12 12 11 11 11 10 10 10 10 10 9 9 9
7 7 7 9 9 9 8 8 11 10 10 10 10 11 11 11 11 11 11 11 12 12 12 12 12 13 13 13 13 13 13 13 12 12 12 12 12 12 11 11 11 10 10 10 10 10 9 9 9
7 7 7 8 9 9 8 9 10 10 10 10 10 10 11 11 11 11 11 11 11 12 12 12 12 12 12 13 13 12 13 12 12 12 12 12 12 11 11 11 10 10 10 10 9 9 9 9 9
6 6 6 8 9 8 8 9 10 10 10 10 10 10 11 11 11 11 11 11 11 11 11 12 12 12 12 12 12 12 12 12 12 12 12 12 11 11 11 11 10 10 10 10 9 9 9 9 9
6 6 6 7 8 8 8 8 9 10 10 10 10 10 10 10 11 11 11 11 11 11 11 11 11 12 12 12 12 12 12 12 12 12 12 12 11 11 11 11 10 10 10 9 9 9 9 9 9
6 6 6 6 7 7 7 8 9 10 10 10 9 9 10 9 10 10 11 11 11 11 11 11 11 11 11 12 12 12 11 11 11 11 11 11 11 11 11 11 10 10 10 10 9 9 10 9 9
5 6 6 6 6 6 7 7 9 10 10 10 9 9 9 9 9 10 10 10 10 11 11 11 11 11 11 11 11 11 11 11 11 12 12 11 11 11 11 11 10 10 10 10 10 10 9 9 9
5 6 6 6 6 6 7 6 8 9 8 9 9 9 8 8 9 9 10 10 10 10 10 11 11 11 11 11 11 11 11 11 11 11 11 11 11 11 11 11 10 10 10 10 10 10 9 9 9
6 6 6 6 6 5 7 7 8 9 8 8 9 8 8 8 8 9 9 10 10 10 10 10 11 11 11 11 11 11 11 11 11 11 11 11 11 11 11 11 11 10 10 10 10 10 10 10 9
5 5 5 6 6 7 8 7 8 8 8 8 8 8 7 7 8 8 8 9 9 9 10 10 10 11 11 11 11 11 12 12 11 11 11 11 11 11 11 11 11 11 11 10 10 10 10 10 10
4 4 4 5 6 7 8 7 8 8 7 7 7 7 6 7 7 7 8 8 8 9 9 10 10 11 11 11 11 11 11 11 11 11 11 11 11 12 12 11 11 11 11 11 10 10 10 10 10
4 4 4 4 5 5 7 7 8 8 7 7 6 6 6 6 6 6 7 7 8 8 9 9 10 11 11 11 11 11 11 11 12 11 11 11 11 12 12 12 11 11 11 11 11 11 10 10 10
5 5 4 4 4 5 7 7 7 6 6 6 6 6 5 5 5 6 6 6 7 8 8 9 10 10 11 11 11 11 11 11 11 11 11 12 12 12 12 12 11 11 11 11 11 11 10 10 10
4 4 3 4 4 4 5 7 7 6 6 6 5 5 5 5 5 5 5 6 6 7 8 9 9 10 10 11 11 11 11 11 11 11 12 12 12 12 12 12 11 11 11 11 11 11 10 10 10
4 3 3 3 3 4 4 6 7 6 6 5 5 4 4 4 4 5 5 5 6 7 7 8 9 9 10 11 11 11 11 11 11 11 11 11 12 12 12 12 11 11 11 11 11 11 10 10 10
Wind_Speed
6 4 4 4 6 10 21 17 14 10 8 8 8 8 9 13 9 4 3 4 7 13 19 26 25 26 26 25 24 24 24 24 23 23 22 22 21 20 20 20 19 18 18 18 18 18 18 18 17
5 3 5 6 10 18 19 19 20 17 10 5 8 11 11 13 11 5 1 3 7 13 18 24 26 26 26 25 25 25 25 24 24 23 23 22 21 21 20 20 19 19 18 18 18 18 18 17 17
4 5 6 7 14 23 18 9 14 16 14 10 8 9 10 9 7 4 2 4 8 12 18 22 25 26 26 25 25 25 25 24 24 24 23 22 22 21 21 20 20 19 19 18 18 18 18 17 17
3 5 6 13 27 25 22 13 8 10 11 13 11 9 8 6 4 3 2 4 8 12 16 22 25 26 26 26 25 25 25 25 24 24 23 23 22 22 21 21 20 19 19 18 18 18 18 17 16
4 6 12 20 31 26 20 17 13 12 12 11 13 14 12 5 4 5 3 5 8 11 15 21 25 26 26 26 25 25 25 25 24 24 23 23 23 22 22 21 20 19 19 18 18 18 18 16 16
5 6 14 24 28 25 22 18 17 18 17 13 13 17 17 8 5 5 4 6 8 10 13 19 23 24 25 25 25 25 25 25 25 24 24 23 23 23 22 21 20 20 19 18 18 18 17 16 15
8 11 21 26 26 24 21 18 20 20 21 18 14 16 14 11 6 4 5 6 8 10 12 15 21 24 24 25 25 25 25 25 25 24 24 23 23 23 22 22 21 20 19 18 18 17 17 16 15
7 8 20 23 25 25 18 17 18 20 22 18 16 16 15 9 5 5 5 6 8 10 12 14 18 21 23 24 24 25 25 25 25 24 24 23 23 23 22 21 20 20 19 18 18 18 17 16 15
6 11 21 22 21 20 16 17 19 19 20 19 18 19 15 8 6 6 7 8 9 11 12 14 17 19 20 21 23 24 25 24 25 23 24 23 21 20 19 20 20 20 19 19 18 18 17 16 14
7 14 23 19 19 19 18 18 19 18 22 22 20 18 13 11 11 11 11 12 13 14 14 14 16 17 18 17 19 20 21 22 22 22 23 20 18 17 17 20 20 19 19 18 18 17 16 13 12
9 16 18 19 19 19 20 21 19 21 25 23 21 19 15 15 15 15 15 15 15 15 15 15 15 16 16 14 15 13 14 16 18 22 21 18 16 15 16 16 17 17 17 16 16 15 12 10 9
14 18 19 20 19 19 21 21 22 23 25 22 21 19 17 18 18 18 18 16 15 16 15 15 16 15 15 15 14 13 12 12 12 17 21 17 12 12 13 12 14 14 13 13 12 10 11 10 10
17 19 19 19 19 20 22 24 24 25 23 22 20 19 19 20 19 19 18 18 17 17 17 16 15 16 14 14 13 13 13 13 15 16 19 18 13 13 12 11 12 13 12 12 10 10 11 10 9
12 17 20 21 22 20 21 24 23 25 20 20 20 20 19 20 20 19 18 18 18 18 18 16 17 16 15 13 14 13 13 14 15 15 18 19 16 13 12 12 11 12 12 12 11 11 10 9 8
14 18 20 19 18 16 17 22 22 21 18 19 21 20 19 20 20 19 18 18 18 18 17 17 17 16 16 15 15 13 13 14 14 14 19 19 17 16 14 12 11 11 13 13 11 11 9 8 8
11 12 13 14 13 13 12 22 21 17 17 21 21 21 19 19 21 20 19 18 18 18 17 16 15 16 16 15 14 13 14 14 14 14 16 19 19 18 15 12 11 13 13 11 10 10 9 8 8
7 10 17 18 11 11 12 21 21 17 18 21 21 20 19 18 20 19 19 18 17 18 17 16 16 17 17 15 13 13 14 14 14 14 15 17 19 19 15 12 12 14 12 11 10 10 9 9 8
13 16 20 20 14 16 19 22 22 18 18 19 20 19 18 18 18 17 17 16 16 17 17 17 16 16 16 13 11 11 13 14 14 14 16 18 18 19 16 12 14 15 11 11 11 11 9 8 8
16 17 22 23 19 16 19 22 22 18 16 17 18 17 17 17 16 15 15 15 15 16 17 17 17 16 15 13 12 13 14 14 14 14 18 19 18 19 16 12 14 14 12 13 13 11 11 9 8
14 17 20 19 14 15 18 22 20 16 15 14 15 15 16 15 14 14 14 15 15 16 17 17 18 17 18 15 13 13 13 12 13 13 16 19 19 19 16 16 14 14 13 14 14 12 10 8 9
14 14 17 19 19 12 12 14 12 9 10 11 12 13 13 13 12 12 13 14 14 15 17 16 18 18 18 18 13 12 11 10 11 14 15 17 19 19 18 18 16 15 14 14 15 15 13 10 10
13 11 15 17 14 8 7 9 11 9 9 9 9 9 10 11 11 10 10 11 13 14 14 16 17 17 18 18 16 18 15 14 13 14 14 16 18 19 19 19 17 16 14 15 15 15 12 12 10
10 15 16 15 12 10 9 7 8 7 9 10 10 9 9 10 10 9 9 10 11 11 11 13 15 16 17 18 19 20 18 15 12 14 16 17 17 18 19 19 17 17 15 16 16 15 14 12 11
12 13 12 8 6 6 6 6 7 5 9 11 10 10 10 9 8 8 7 7 8 7 8 11 14 15 18 19 20 22 21 18 16 17 17 16 14 15 19 19 18 17 15 16 16 15 16 13 13
9 8 5 3 3 5 5 5 5 7 9 9 10 11 10 9 8 7 6 6 6 6 7 9 14 15 17 19 20 21 21 21 20 18 18 17 15 14 19 18 18 17 16 16 16 15 16 15 15
9 6 5 5 6 8 7 5 4 6 10 10 11 11 12 11 9 8 7 6 6 6 7 9 12 14 16 17 18 19 20 16 15 18 17 18 16 16 19 20 19 19 18 17 16 14 15 14 15
6 5 5 6 8 8 6 5 5 8 12 14 14 13 14 13 11 9 8 7 6 6 7 8 11 12 15 17 17 18 19 18 17 18 18 16 16 16 20 20 20 19 19 18 17 14 16 14 14
6 7 4 4 5 7 7 7 5 11 13 15 15 14 15 15 13 11 10 8 7 6 6 8 9 12 14 16 16 15 19 19 18 17 18 18 18 17 19 20 20 19 19 19 17 15 15 15 14
4 3 4 5 5 6 8 5 4 8 12 14 14 15 15 15 14 13 11 10 8 6 6 6 8 10 11 13 14 16 18 18 18 18 18 18 18 19 19 20 20 19 19 19 18 17 16 17 15
6 5 5 5 6 6 8 8 4 8 10 12 14 15 15 15 14 12 11 10 9 7 6 6 7 8 10 11 13 15 16 17 18 18 18 18 18 19 19 19 19 19 19 19 19 18 17 17 16
Wind_Direction
305 249 206 208 223 232 240 234 231 230 228 229 220 217 227 226 219 236 49 152 169 168 171 171 173 171 169 165 162 159 157 156 155 153 149 145 142 140 138 134 132 131 129 124 120 116 112 110 107
299 213 199 214 231 235 241 237 233 233 234 223 221 231 238 241 243 287 0 158 177 171 173 175 173 172 170 167 164 161 159 158 157 154 150 147 146 143 141 138 135 133 129 125 121 118 115 112 111
262 210 209 218 230 235 240 231 241 239 237 234 232 236 241 243 237 253 20 167 178 176 176 174 172 173 171 169 166 163 161 159 158 155 152 150 148 146 142 139 136 132 129 125 123 121 119 116 114
223 200 222 232 236 236 245 249 246 243 238 234 241 246 236 244 271 307 333 190 186 181 180 174 173 174 172 170 168 165 163 161 159 156 155 153 151 147 142 138 135 132 130 129 127 124 121 119 117
227 220 227 237 243 244 245 251 255 251 247 238 236 248 250 241 274 299 269 204 195 186 183 177 174 175 174 172 169 167 165 163 160 159 157 155 152 148 143 139 137 136 134 133 131 128 125 122 119
217 222 234 242 246 246 246 246 252 255 255 253 252 256 257 254 269 287 255 218 203 191 186 179 177 177 175 174 171 169 167 164 162 160 158 155 151 147 144 141 141 139 138 137 135 131 128 126 121
230 231 243 251 257 254 250 247 247 252 253 252 258 264 263 257 269 276 245 219 201 192 188 184 181 180 177 175 173 171 168 165 162 161 158 154 151 148 146 144 143 142 142 141 139 135 132 128 123
244 243 251 251 256 258 259 255 251 254 258 264 261 256 260 273 286 265 245 226 209 197 193 189 186 184 182 180 175 170 167 165 162 159 155 150 149 148 146 146 145 145 144 144 141 137 133 128 124
242 239 247 249 256 263 265 264 260 262 263 261 258 262 275 284 271 254 241 228 215 204 198 195 191 188 184 181 175 170 166 164 160 157 151 151 154 151 151 149 148 147 147 145 142 138 133 129 124
229 245 252 259 266 273 273 272 273 267 260 259 259 261 270 263 250 242 234 225 216 209 202 198 195 191 186 179 174 175 172 168 168 165 161 162 158 155 152 145 147 147 147 145 141 138 137 140 136
241 251 267 270 273 277 275 272 271 268 263 260 262 263 263 260 253 244 238 229 221 213 208 203 196 193 187 181 176 174 171 171 171 168 166 161 155 152 152 152 151 150 150 149 144 148 152 149 141
258 263 267 271 274 275 273 273 269 264 268 274 272 265 259 255 250 244 240 235 227 219 213 209 199 194 190 184 179 176 172 171 169 169 165 161 157 158 158 159 159 158 158 154 156 158 155 150 149
260 267 272 272 272 271 274 270 269 268 271 275 271 264 253 252 251 248 243 239 232 224 216 211 203 197 192 187 182 180 176 173 169 168 168 164 161 162 161 161 161 162 159 158 158 160 156 154 152
273 277 279 277 271 269 270 273 269 265 268 271 267 260 254 251 249 247 243 238 233 226 219 213 206 200 193 190 185 181 177 173 170 170 170 169 165 164 164 163 164 163 163 163 163 161 158 156 157
280 283 282 272 269 268 275 270 262 264 267 268 268 263 256 250 247 243 240 239 234 229 222 216 209 202 195 191 187 181 176 173 172 171 172 172 168 166 167 167 167 165 165 164 164 161 161 158 159
278 278 281 281 281 277 264 266 271 271 270 272 271 267 260 251 246 243 240 240 235 229 223 216 211 203 196 189 187 181 177 176 174 173 173 174 171 170 169 168 169 166 165 168 166 166 165 164 167
266 287 293 295 281 280 267 273 279 277 271 270 271 269 262 256 249 243 239 237 233 227 220 213 210 205 197 188 185 182 177 177 176 175 174 176 174 173 172 172 169 168 169 172 170 172 171 169 168
298 298 294 292 292 289 280 277 282 282 273 270 270 269 264 256 250 243 238 235 231 225 219 212 208 204 194 186 184 180 178 180 178 178 178 177 177 176 175 174 172 171 173 175 176 174 174 172 166
291 290 290 292 298 291 282 282 284 285 276 272 269 268 265 259 253 245 240 236 230 224 219 212 207 202 192 183 181 180 181 181 179 180 180 179 178 178 179 175 175 177 179 180 179 174 171 169 166
290 292 293 299 303 296 285 285 285 279 272 267 268 269 269 270 259 246 239 233 227 222 219 212 208 203 197 189 185 183 180 183 181 179 182 182 181 181 182 180 179 181 182 182 181 176 173 169 178
294 287 296 302 308 293 286 286 286 289 280 276 272 272 272 271 267 252 242 233 225 221 218 213 207 203 199 190 185 179 173 176 181 183 184 186 184 184 184 185 183 183 184 185 184 182 182 177 184
299 300 298 299 302 298 294 294 297 305 308 312 304 292 283 278 272 261 250 240 227 224 221 214 207 202 198 192 189 183 182 185 190 185 184 184 186 187 187 187 187 186 187 187 187 189 189 181 184
295 304 295 289 285 284 274 267 289 307 310 316 318 316 305 293 280 267 253 247 234 227 225 215 207 204 199 195 195 189 190 190 188 184 183 184 187 190 189 188 189 189 190 190 189 189 191 191 192
304 303 292 272 264 268 282 272 294 322 325 326 327 326 323 315 298 278 265 257 245 232 231 220 206 207 202 197 199 196 192 187 186 187 185 186 187 190 192 190 191 192 192 193 192 191 195 196 198
333 326 319 305 270 277 301 280 290 340 343 335 337 339 336 332 324 307 291 273 259 243 232 223 209 208 203 200 202 200 195 190 190 191 190 187 188 191 193 191 193 193 195 194 192 193 197 200 201
319 319 312 306 299 304 297 275 307 353 351 347 345 345 346 346 340 329 316 297 273 253 237 229 216 212 204 203 204 201 198 194 195 196 193 192 192 192 191 192 195 195 194 193 193 195 199 202 204
311 309 293 283 285 280 276 281 295 346 352 352 348 347 348 347 343 335 325 316 296 271 250 239 227 218 209 206 205 202 200 197 196 197 196 194 194 191 191 192 195 196 194 194 193 198 199 202 206
271 302 297 294 302 293 290 287 318 346 348 347 348 346 345 345 340 332 327 320 309 294 269 248 239 225 213 209 207 204 201 199 197 197 197 196 194 190 190 192 194 195 195 194 195 199 201 202 205
290 288 289 286 287 292 294 296 351 338 337 338 338 338 337 339 338 332 327 319 308 310 298 270 249 232 218 213 210 208 203 200 199 201 200 197 195 191 191 192 193 194 196 195 196 199 198 202 204
264 270 275 286 285 273 281 284 327 327 330 332 331 334 334 334 335 332 330 327 321 315 307 289 267 237 223 217 213 211 206 200 198 201 201 199 195 193 192 190 192 194 195 195 197 199 199 201 202
Height
1504 1506 1509 1511 1509 1500 1484 1475 1475 1478 1478 1477 1478 1478 1475 1473 1474 1475 1471 1469 1469 1470 1472 1474 1477 1481 1484 1488 1492 1495 1498 1501 1504 1507 1509 1511 1513 1515 1517 1519 1521 1523 1524 1525 1526 1527 1528 1528 1529
1503 1505 1509 1508 1500 1488 1474 1471 1473 1474 1475 1477 1478 1477 1474 1472 1472 1471 1469 1467 1468 1470 1472 1474 1477 1480 1484 1487 1491 1494 1497 1500 1503 1506 1509 1511 1513 1515 1517 1519 1521 1522 1524 1525 1526 1527 1528 1528 1529
1502 1504 1506 1500 1488 1474 1466 1468 1471 1472 1474 1476 1475 1474 1472 1469 1470 1470 1467 1467 1468 1469 1471 1473 1476 1480 1483 1487 1490 1494 1497 1500 1503 1506 1508 1511 1513 1515 1517 1519 1520 1522 1524 1525 1526 1527 1528 1528 1529
1501 1503 1501 1493 1474 1466 1466 1467 1471 1471 1472 1474 1473 1471 1469 1469 1468 1467 1466 1466 1467 1469 1470 1472 1475 1479 1482 1486 1490 1493 1496 1499 1502 1505 1508 1510 1512 1515 1517 1518 1520 1522 1524 1525 1527 1527 1528 1529 1530
1499 1498 1493 1481 1467 1464 1465 1469 1472 1470 1469 1470 1471 1466 1465 1467 1465 1464 1464 1465 1466 1468 1470 1472 1474 1478 1482 1485 1489 1492 1495 1499 1501 1504 1507 1509 1512 1514 1516 1518 1520 1522 1524 1525 1527 1528 1529 1529 1530
1497 1493 1484 1468 1460 1462 1464 1469 1471 1469 1467 1468 1468 1465 1463 1464 1463 1463 1463 1463 1465 1466 1468 1471 1473 1477 1481 1484 1488 1491 1494 1497 1501 1504 1506 1509 1511 1513 1516 1518 1520 1522 1523 1525 1527 1528 1529 1530 1531
1493 1487 1474 1464 1460 1459 1462 1466 1467 1466 1464 1465 1466 1462 1460 1462 1461 1460 1461 1461 1463 1465 1467 1469 1472 1476 1479 1483 1486 1490 1493 1496 1500 1503 1505 1508 1511 1513 1515 1517 1519 1521 1523 1525 1527 1528 1529 1530 1531
1490 1485 1472 1465 1461 1458 1462 1464 1465 1465 1461 1464 1464 1459 1458 1459 1458 1458 1459 1459 1461 1463 1465 1468 1470 1474 1477 1481 1485 1488 1492 1495 1499 1502 1504 1507 1510 1512 1515 1517 1519 1521 1523 1525 1527 1528 1530 1531 1532
1488 1483 1466 1461 1460 1458 1461 1462 1463 1463 1461 1460 1459 1458 1457 1457 1456 1456 1456 1457 1458 1460 1462 1465 1468 1471 1474 1478 1482 1486 1490 1494 1497 1500 1503 1506 1509 1512 1514 1516 1518 1521 1523 1525 1527 1529 1530 1531 1533
1484 1473 1461 1462 1461 1460 1461 1462 1462 1460 1455 1455 1455 1454 1454 1454 1454 1454 1453 1454 1455 1456 1459 1461 1464 1467 1471 1475 1478 1483 1487 1491 1494 1498 1501 1505 1508 1510 1513 1515 1518 1520 1523 1525 1527 1529 1530 1532 1533
1477 1469 1464 1464 1463 1463 1461 1460 1460 1457 1450 1450 1450 1450 1450 1450 1450 1450 1450 1450 1451 1453 1455 1458 1460 1463 1467 1470 1474 1479 1483 1487 1491 1495 1498 1502 1505 1508 1512 1514 1517 1520 1522 1525 1526 1529 1531 1532 1533
1474 1467 1466 1464 1463 1462 1459 1456 1454 1451 1447 1448 1447 1446 1445 1445 1445 1445 1445 1446 1448 1449 1451 1453 1456 1459 1463 1467 1470 1475 1478 1483 1487 1491 1495 1499 1502 1506 1509 1513 1516 1518 1521 1523 1526 1528 1530 1532 1533
1470 1465 1464 1461 1460 1458 1456 1452 1448 1444 1444 1444 1442 1441 1440 1439 1439 1440 1441 1442 1443 1445 1446 1449 1452 1455 1459 1462 1466 1471 1474 1479 1483 1488 1491 1495 1499 1503 1507 1511 1514 1517 1519 1522 1524 1527 1529 1531 1533
1466 1463 1459 1457 1455 1453 1450 1445 1443 1436 1438 1437 1436 1435 1434 1434 1434 1435 1435 1436 1438 1439 1441 1444 1447 1450 1454 1458 1462 1466 1471 1475 1480 1484 1488 1492 1496 1500 1504 1508 1512 1515 1517 1520 1523 1526 1528 1531 1533
1465 1461 1454 1450 1448 1446 1446 1437 1433 1431 1432 1431 1430 1428 1427 1428 1428 1428 1429 1430 1432 1434 1436 1438 1442 1445 1449 1453 1457 1462 1466 1471 1476 1480 1485 1489 1493 1498 1502 1506 1509 1512 1516 1519 1522 1525 1527 1530 1532
1462 1457 1448 1442 1443 1442 1445 1429 1425 1426 1427 1425 1424 1422 1421 1421 1421 1421 1423 1424 1426 1428 1430 1433 1437 1440 1444 1448 1453 1457 1462 1467 1472 1477 1482 1486 1491 1495 1499 1503 1507 1510 1513 1517 1520 1523 1526 1528 1531
1455 1451 1444 1438 1438 1438 1437 1425 1419 1421 1421 1419 1417 1415 1414 1413 1414 1415 1416 1417 1419 1422 1425 1427 1431 1435 1439 1443 1447 1452 1457 1463 1468 1473 1478 1483 1488 1492 1496 1500 1504 1508 1511 1515 1518 1521 1524 1527 1529
1453 1449 1442 1437 1433 1433 1428 1420 1414 1416 1415 1412 1410 1409 1408 1407 1407 1408 1409 1411 1413 1416 1419 1421 1425 1429 1434 1438 1443 1447 1453 1458 1464 1469 1474 1479 1484 1489 1493 1497 1501 1505 1509 1512 1516 1519 1522 1525 1528
1455 1450 1443 1433 1430 1429 1421 1414 1409 1409 1408 1406 1404 1403 1401 1400 1401 1402 1404 1405 1407 1409 1412 1415 1419 1423 1428 1432 1436 1441 1447 1453 1458 1464 1470 1475 1480 1485 1489 1493 1497 1501 1505 1509 1513 1517 1520 1523 1526
1453 1448 1439 1430 1427 1426 1418 1410 1405 1403 1402 1401 1400 1398 1397 1395 1395 1396 1397 1399 1400 1403 1406 1410 1413 1417 1422 1426 1431 1437 1442 1448 1454 1460 1465 1471 1476 1481 1485 1489 1493 1498 1502 1507 1510 1513 1517 1520 1523
1448 1444 1438 1433 1427 1421 1417 1405 1397 1395 1395 1396 1396 1395 1393 1392 1391 1391 1392 1393 1395 1397 1400 1404 1407 1412 1416 1421 1427 1433 1438 1444 1449 1454 1460 1466 1471 1476 1481 1486 1490 1494 1499 1503 1506 1510 1513 1516 1520
1445 1440 1438 1433 1429 1420 1417 1409 1394 1393 1392 1392 1392 1390 1389 1388 1387 1387 1387 1388 1390 1392 1395 1399 1402 1406 1411 1416 1421 1425 1430 1435 1441 1448 1454 1461 1466 1472 1477 1482 1486 1490 1495 1499 1503 1507 1511 1514 1517
1445 1441 1437 1431 1427 1423 1412 1412 1395 1391 1391 1390 1390 1388 1386 1385 1384 1383 1383 1384 1385 1388 1390 1394 1397 1400 1405 1410 1415 1420 1425 1431 1438 1444 1450 1455 1461 1467 1472 1477 1481 1486 1490 1495 1499 1503 1507 1510 1514
1446 1439 1430 1425 1423 1420 1408 1406 1394 1391 1393 1391 1389 1387 1385 1382 1381 1380 1380 1381 1383 1384 1386 1389 1392 1396 1400 1405 1410 1414 1419 1426 1432 1438 1443 1449 1455 1461 1466 1471 1477 1481 1486 1490 1495 1499 1503 1507 1510
1446 1441 1429 1421 1417 1410 1404 1404 1398 1396 1396 1394 1391 1388 1384 1382 1379 1378 1377 1378 1379 1380 1381 1384 1388 1391 1395 1399 1404 1409 1414 1420 1426 1432 1438 1443 1449 1454 1460 1465 1471 1476 1481 1486 1491 1495 1499 1503 1506
1449 1447 1443 1433 1417 1406 1402 1400 1397 1398 1398 1395 1392 1389 1385 1382 1379 1377 1376 1376 1376 1377 1378 1380 1383 1386 1390 1394 1398 1404 1410 1415 1421 1427 1432 1438 1443 1448 1454 1460 1466 1471 1476 1481 1486 1490 1495 1498 1502
1450 1445 1444 1441 1427 1419 1402 1397 1396 1397 1395 1393 1391 1388 1385 1382 1379 1377 1376 1374 1373 1373 1374 1376 1378 1381 1385 1389 1394 1399 1405 1410 1415 1422 1428 1433 1438 1444 1450 1455 1461 1467 1471 1476 1481 1485 1489 1494 1497
1450 1446 1444 1439 1430 1414 1402 1397 1397 1397 1396 1394 1392 1389 1386 1383 1380 1377 1375 1372 1371 1371 1371 1372 1374 1377 1380 1385 1389 1394 1399 1404 1411 1417 1421 1427 1433 1438 1444 1450 1455 1461 1466 1471 1476 1480 1485 1489 1492
1450 1448 1445 1439 1435 1424 1409 1399 1400 1401 1400 1397 1394 1391 1387 1384 1380 1376 1373 1371 1369 1368 1368 1368 1369 1371 1375 1379 1384 1389 1394 1399 1405 1411 1416 1421 1427 1433 1438 1444 1450 1455 1460 1465 1470 1475 1479 1483 1487
1449 1447 1445 1444 1436 1429 1419 1405 1401 1401 1400 1398 1395 1391 1387 1384 1380 1376 1372 1369 1367 1365 1365 1365 1366 1368 1371 1374 1379 1384 1389 1394 1400 1405 1411 1416 1422 1427 1433 1439 1444 1450 1455 1460 1464 1469 1473 1477 1481